Regional Weather Roundup
Issued by NWS

Home | Current Version | Previous Version | Text Only | Print | Product List | Glossary Off
Versions: 1 2 3 4 5 6 7 8 9 10 11 12 13 14 15 16 17 18 19 20 21 22 23 24 25 26 27 28 29 30 31 32 33 34 35 36 37 38 39 40 41 42 43 44 45 46 47 48 49 50

000
ASUS43 KLOT 281402
RWRIL

ILLINOIS REGIONAL WEATHER ROUNDUP
NATIONAL WEATHER SERVICE CHICAGO/ROMEOVILLE IL
900 AM CDT TUE APR 28 2015

NOTE: "FAIR" INDICATES FEW OR NO CLOUDS BELOW 12,000 FEET WITH NO
SIGNIFICANT WEATHER AND/OR OBSTRUCTIONS TO VISIBILITY.

* THESE STATIONS ARE NOT UNDER NWS QUALITY CONTROL. THEY ALSO MAY NOT
  REPORT WEATHER SUCH AS PRECIPITATION OR FOG.

ILZ001-002-007-009-015-016-024-281500-
NORTHWEST ILLINOIS

CITY           SKY/WX    TMP DP  RH WIND       PRES   REMARKS
MOLINE         SUNNY     53  39  59 CALM      30.14S
STERLING*      SUNNY     52  39  62 CALM      30.17S
$$

ILZ003-004-008-010-011-017-018-281500-
NORTH CENTRAL ILLINOIS

CITY           SKY/WX    TMP DP  RH WIND       PRES   REMARKS
ROCKFORD       MOSUNNY   51  35  54 N5        30.19F
FREEPORT*      SUNNY     48  37  64 NE3       30.18F
$$

ILZ005-006-012>014-019>023-281500-
NORTHEAST ILLINOIS

CITY           SKY/WX    TMP DP  RH WIND       PRES   REMARKS
CHICAGO-OHARE  MOSUNNY   46  34  62 VRB3      30.17R
CHICAGO-MIDWAY SUNNY     50  37  61 CALM      30.17R
AURORA         SUNNY     49  35  58 N5        30.17S
WAUKEGAN       SUNNY     47  37  68 N6        30.16S
DUPAGE AIRPORT SUNNY     48  36  63 NE3       30.16S
WHEELING       SUNNY     48  35  60 VRB3      30.18F
NORTHERLY ISL    N/A     47  38  71 N7          N/A
$$

LMZ740>746-281500-
SOUTHERN LAKE MICHIGAN

STATION/POSITION SKY/WX   TEMP    WIND        PRES    VSBY  WAVE
                          AIR SEA DIR/SP/G                  HT/PER
                          (F)     (DEG/KT/KT) (MB)    (MI)  (FT/S)
HARRISON CRIB              43     320/  7/  8   N/A
BURNHAM HARBOR             45      60/  1/  7   N/A
CALUMET HARBOR             44      20/  5/  6   N/A
BURNS HARBOR               43     310/  5/  7 1022.4R
MICHIGAN CITY              42     190/  3/  4   N/A
MICHIGAN CITY 6N           42 46  280/  4/  6   N/A           1/ 4
$$

ILZ025>027-034>036-040-047-049-050-058-095>099-281500-
WEST-CENTRAL ILLINOIS

CITY           SKY/WX    TMP DP  RH WIND       PRES   REMARKS
QUINCY         SUNNY     55  38  52 VRB3      30.15S
$$

ILZ028>032-037-038-041>044-048-051>054-059>061-281500-
CENTRAL ILLINOIS

CITY           SKY/WX    TMP DP  RH WIND       PRES   REMARKS
DECATUR        SUNNY     51  39  63 SE7       30.16S
PEORIA         SUNNY     53  38  56 CALM      30.16F
SPRINGFIELD    SUNNY     51  38  60 E7        30.17S
TAYLORVILLE    NOT AVBL
$$

ILZ033-039-045-046-055>057-062-063-281500-
EAST-CENTRAL ILLINOIS

CITY           SKY/WX    TMP DP  RH WIND       PRES   REMARKS
CHAMPAIGN      SUNNY     50  38  63 E8        30.16S
MATTOON        SUNNY     49  39  68 NE6       30.15S
$$

ILZ079-100>102-281500-
SOUTHWEST ILLINOIS

CITY           SKY/WX    TMP DP  RH WIND       PRES   REMARKS
ALTON          MOSUNNY   52  37  58 NE12      30.15R
BELLEVILLE     SUNNY     51  41  67 NE8       30.12F
CAHOKIA*       SUNNY     54  39  57 E10       30.13F
SPARTA*        SUNNY     50  41  71 NE8       30.13S
$$

ILZ064>066-069>071-074>076-080>082-084>086-088>090-092>094-281500-
SOUTH-CENTRAL ILLINOIS

CITY           SKY/WX    TMP DP  RH WIND       PRES   REMARKS
CARBONDALE     SUNNY     53  39  59 E12       30.10F
MARION         SUNNY     52  41  66 N12       30.10F
MT. VERNON     SUNNY     52  39  62 NE7       30.13S
$$

ILZ067-068-072-073-078-083-087-091-281500-
SOUTHEAST ILLINOIS

CITY           SKY/WX    TMP DP  RH WIND       PRES   REMARKS
LAWRENCEVILLE  SUNNY     52  40  63 NE10      30.14S
ROBINSON*      SUNNY     51  40  65 NE8       30.15F
$$

ABBREVIATIONS USED IN REMARKS
   TC - TEMPERATURE IN CELSIUS
  WCI - WIND CHILL INDEX
   HX - HEAT INDEX
  VSB - VISIBILITY
$$




USA.gov is the U.S. government's official web portal to all federal, state and local government web resources and services.